AEST,Max TemperatureF,Mean TemperatureF,Min TemperatureF,Max Dew PointF,MeanDew PointF,Min DewpointF,Max Humidity, Mean Humidity, Min Humidity, Max Sea Level PressureIn, Mean Sea Level PressureIn, Min Sea Level PressureIn, Max VisibilityMiles, Mean VisibilityMiles, Min VisibilityMiles, Max Wind SpeedMPH, Mean Wind SpeedMPH, Max Gust SpeedMPH,PrecipitationIn, CloudCover, Events, WindDirDegrees
2013-8-1,78,68,59,60,56,52,88,64,33,30.04,29.98,29.92,19,7,6,21,11,,0.00,4,,147
2013-8-2,79,68,56,64,59,54,94,70,42,30.05,30.00,29.95,19,8,6,14,9,,0.00,1,,148
2013-8-3,78,70,62,64,62,60,88,76,48,30.08,30.02,29.98,19,7,5,21,8,28,0.00,3,Rain,165
2013-8-4,81,70,59,61,58,51,94,67,25,30.09,30.03,29.98,19,7,6,20,10,,0.00,1,,167
2013-8-5,80,68,56,59,54,44,94,62,18,30.12,30.05,29.98,19,7,6,17,6,,0.00,1,,166
2013-8-6,80,68,55,59,54,46,94,59,19,30.11,30.04,29.98,19,7,6,16,8,,0.00,1,,150
2013-8-7,80,67,54,55,52,39,94,63,19,30.08,30.00,29.92,19,8,6,16,6,,0.00,1,,170
2013-8-8,78,66,53,61,55,52,100,72,30,30.04,29.97,29.89,6,6,6,12,4,,0.00,1,,339
2013-8-9,80,66,51,59,52,36,100,65,14,30.02,29.97,29.92,6,6,6,13,3,,0.00,1,,83
2013-8-10,79,67,55,57,54,50,88,61,32,30.07,30.01,29.95,6,6,6,16,8,,0.00,1,,162
2013-8-11,82,72,62,63,57,52,78,58,31,30.07,30.01,29.95,19,7,6,16,10,,0.00,4,,146
2013-8-12,82,71,60,61,59,55,94,69,37,30.04,29.99,29.92,19,6,6,15,8,,0.00,1,,133
2013-8-13,81,70,60,64,61,59,94,76,40,30.05,29.99,29.92,6,6,6,12,4,,0.00,1,,111
2013-8-14,80,69,58,63,60,59,100,72,41,30.05,29.99,29.95,19,7,6,13,5,,0.00,1,Fog,151
2013-8-15,80,70,60,65,61,57,94,75,47,30.05,30.00,29.92,19,7,6,13,5,,0.00,1,,167
2013-8-16,84,73,62,66,63,60,94,71,37,30.08,30.01,29.95,19,6,6,15,7,,0.00,2,,143
2013-8-17,83,74,66,66,64,59,88,68,38,30.07,30.01,29.95,19,7,6,15,9,,0.00,2,,140
2013-8-18,82,72,63,65,62,59,94,71,36,30.06,30.00,29.95,19,7,6,15,7,,0.00,1,,136
2013-8-19,81,72,62,66,64,60,100,76,44,30.06,29.98,29.89,19,8,6,14,5,,0.00,1,,95
2013-8-20,80,70,61,69,65,61,100,82,51,29.99,29.93,29.89,19,7,4,14,3,,0.00,2,Fog,16
2013-8-21,81,72,62,68,65,61,100,77,49,30.00,29.94,29.86,19,7,2,14,5,,0.00,2,,101
2013-8-22,81,74,67,66,64,61,88,72,45,30.04,29.97,29.92,19,7,6,14,8,,0.00,4,Rain,136
2013-8-23,80,74,67,65,63,57,88,71,45,30.11,30.03,29.97,19,6,6,20,10,,0.04,5,Rain,149
2013-8-24,82,74,66,66,58,49,94,62,23,30.15,30.08,30.04,19,6,6,21,10,32,0.00,3,Rain,150
2013-8-25,80,70,61,57,54,50,73,52,27,30.18,30.10,30.06,19,7,6,20,10,,0.00,2,,150
2013-8-26,81,72,63,64,60,55,88,65,31,30.14,30.08,30.04,19,7,6,18,11,,0.02,3,Rain,158
2013-8-27,82,74,67,65,62,55,90,67,31,30.13,30.07,30.04,19,7,6,20,12,,0.00,3,Rain,159
2013-8-28,82,73,64,64,61,54,94,68,34,30.12,30.06,30.00,19,7,6,36,14,,0.00,3,,146
2013-8-29,83,72,61,64,61,57,88,66,37,30.11,30.05,29.98,19,7,6,22,12,,0.00,2,,146
2013-8-30,82,74,66,64,61,54,83,63,43,30.11,30.05,29.98,19,6,6,23,13,,0.00,2,,153
2013-8-31,84,76,67,63,60,57,78,60,31,30.13,30.07,30.01,19,7,6,20,13,,0.00,2,,153